Starlink 30175

operational
NORAD ID: 57311 Int'l Des: 2023-096 Owner: SPXS Country: US Constellation: starlink
LEOCIRCULAR

About Starlink 30175

Description loading...

Live Position

Loading 3D Globe...

Upcoming Passes

Altitude History

Altitude vs Time

uPlot chart will show altitude changes over time

Two-Line Element Set

1 57311U 23096X 25306.50002315 .00110242 00000-0 35963-2 0 9997
2 57311 42.9890 170.8129 0028023 229.0650 19.1931 15.30313993 5824
Epoch: Nov 2, 2025 • Age: 7 hours

Current Status

Altitude 464.9 km
Velocity 7.64 km/s
Sub-Earth Point 7.93°N, 5.88°E
Launch Date Jul 10, 2023
Age 2.3 years
Type internet

Technical Details

Classification Payload
Mass 730.00 kg
Dry Mass 700.00 kg
Total Mass 730.00 kg
Length 0.30 m
Diameter 4.10 m
Span 29.00 m
Shape Box + pan
Manufacturer SPXS
Bus Type Starlink V2M
Phase Status In Orbit
Owner/State SPXS/US

Large Constellations

Loading constellations...